Find Starlink 33916

NORAD ID: 63792 Int'l Des: 2025-091 Owner: SPXS Country: US Constellation: starlink operational
LEOCIRCULAR

Live Position

Loading 3D Globe...

About Starlink 33916

Description loading...

Upcoming Passes

Passes for default location (London). Set your location on the main map for personalized predictions.

Altitude History

Loading altitude history...

Two-Line Element Set

1 63792U 25091T 26125.27903082 .00038026 00000-0 13836-2 0 9993
2 63792 43.0013 93.2140 0001595 260.3896 99.6775 15.27594195 57556
Epoch: May 5, 2026 • Age: 16 hours

Current Status

Altitude 484.6 km
Velocity 7.62 km/s
Sub-Earth Point -11.31°S, 121.33°W
Launch Date May 2, 2025
Age 1 years
Type internet

Technical Details

Classification Payload
Mass 575.00 kg
Dry Mass 530.00 kg
Total Mass 575.00 kg
Length 0.30 m
Diameter 4.10 m
Span 29.00 m
Shape Box + pan
Manufacturer SPXS
Bus Type Starlink V2MO
Phase Status In Orbit
Owner/State SPXS/US

Most Searched